Location: Endfield
(51.6667°N, 0.0667°W)
Time: 01:47:28
(UTC+00:00)

USA 229 DEB - Pass Details

Date: 19 May 2024
Orbit: 892 x 1319 km, 63.4° (Epoch: 30 May)

Event Time Altitude Azimuth Distance (km) Brightness Sun altitude
Rises 20:43:51 0° 313° (NW) 3,902 9.4 -6.9°
Reaches altitude 10° 20:46:26 10° 315° (NW) 3,002 7.9 -7.2°
Maximum altitude 20:53:42 74° 41° (NE) 1,252 4.1 -7.9°
Drops below altitude 10° 21:01:39 10° 127° (SE) 3,272 5.6 -8.8°
Enters shadow 21:01:46 10° 127° (SE) 3,314 5.6 -8.8°
